Tracking 28125 objects as of 2-Oct-2023
HD Live streaming from Space Station
objects crossing your sky now

STARLINK-3987

Track STARLINK-3987 now!
10-day predictions
STARLINK-3987 is classified as:


NORAD ID: 52699
Int'l Code: 2022-053AV
Perigee: 545.8 km
Apogee: 547.9 km
Inclination: 53.2 °
Period: 95.4 minutes
Semi major axis: 6917 km
RCS: Unknown
Launch date: May 18, 2022
Source: United States (US)
Launch site: AIR FORCE EASTERN TEST RANGE (AFETR)
Your satellite tracking list
Your tracking list is empty




NASA's NSSDC Master Catalog

Two Line Element Set (TLE):
1 52699U 22053AV  23275.43252689  .00003390  00000-0  23092-3 0  9995
2 52699  53.2155 171.1766 0001482  94.4814 265.6348 15.08845291 76569
Source of the keplerian elements: AFSPC